weather.gov     
National Weather Service

Terminal Aerodrome Forecast
NWS Homepage
This page is being discontinued on March 12, 2014.
The same data is available at this site. Please update your bookmarks.
Thank you, and we apologize for the inconvenience.
Please send an email to SR-SRH.Webmaster@noaa.gov with any concerns.


Current Version
Previous Version:    01  02  03  04  05  06  07  08  09  10  11  12  13  14  15  16  17  18  19  20  21  22  23  24  25  26  27  28  29  30  
   31  
[Printable]
985
FTUS43 KAPX 191700
TAFTVC
TAF
KTVC 191725Z 1918/2018 17008G15KT P6SM BKN250
     FM192000 19011G22KT P6SM BKN250
     FM200100 17009KT P6SM OVC150 WS007/19030KT
     FM200500 18011KT P6SM -SHRA OVC050 WS007/20035KT
     FM201400 23011G18KT P6SM BKN019=


U.S. Dept. of Commerce
NOAA National Weather Service
1325 East West Highway
Silver Spring, MD 20910
E-mail: w-nws.webmaster@noaa.gov
Page last modified: May 16, 2007
NATIONAL WEATHER SERVICE: for Safety, for Work, for Fun - FOR LIFE